Regional Weather Roundup
Issued by NWS

Home | Current Version | Previous Version | Graphics & Text | Print | Product List | Glossary On
Versions: 1 2 3 4 5 6 7 8 9 10 11 12 13 14 15 16 17 18 19 20 21 22 23 24 25 26 27 28 29 30 31 32 33 34 35 36 37 38 39 40 41 42 43 44 45 46 47 48 49 50
000
ASUS45 KCYS 250210
RWRWY

WYOMING REGIONAL WEATHER ROUNDUP
NATIONAL WEATHER SERVICE CHEYENNE WY
700 PM MST MON NOV 24 2014

NOTE:  "FAIR" INDICATES FEW OR NO CLOUDS BELOW 12,000 FEET
WITH NO SIGNIFICANT WEATHER AND/OR OBSTRUCTIONS TO VISIBILITY.

WYZ001-250300-
YELLOWSTONE NATIONAL PARK

CITY           SKY/WX    TMP DP  RH WIND       PRES   REMARKS
LK YELLOWSTONE   N/A     17  10  74 VRB3      30.24R
W YELLOWSTONE  NOT AVBL

$$
WYZ002>013-054>058-071-098>099-250300-
NORTHERN WYOMING

CITY           SKY/WX    TMP DP  RH WIND       PRES   REMARKS
JACKSON        PTCLDY    27  18  69 S8        30.28R WCI  18
CODY           MOCLDY    34  10  37 W13G21    30.11S WCI  25
GREYBULL       PTCLDY    27  17  66 S3        30.15R
WORLAND        PTCLDY    24  16  71 S12       30.16S WCI  13
SHERIDAN       PTCLDY    29  16  58 W12       30.11S WCI  19
BUFFALO        CLEAR     24  11  57 SW8       30.11S WCI  15
GILLETTE       CLEAR     26  23  88 W13       30.10F WCI  15
HULETT         MOCLDY    32  23  69 W3        30.08S
NEWCASTLE      FAIR      27  21  80 NW8       30.10R WCI  18

$$
WYZ014>020-022>026-101>103-250300-
CENTRAL WYOMING

CITY           SKY/WX    TMP DP  RH WIND       PRES   REMARKS
BIG PINEY      PTCLDY    22   7  52 NW3       30.25S
PINEDALE       MOCLDY    10   5  79 NW6       30.24S WCI   1
DUBOIS         FAIR      21   9  58 W10G22    30.19R WCI  10
LANDER         CLEAR     26   4  38 SW8       30.16F WCI  18
RIVERTON       CLEAR     28  11  48 NW16      30.16F WCI  16
CASPER         CLEAR     21  14  74 SW9       30.16S WCI  11
DOUGLAS        CLOUDY   N/A N/A N/A NW7       30.17R

$$
WYZ021-027>030-104>119-250300-
SOUTHERN WYOMING

CITY           SKY/WX    TMP DP  RH WIND       PRES   REMARKS
EVANSTON       CLEAR     17  11  77 SW13      30.34R WCI   4
FORT BRIDGER   FAIR      21  14  73 W14       30.35R WCI   8
ROCK SPRINGS   CLEAR     22  10  60 W15       30.26R WCI   9
DIXON          FAIR      11   7  84 NE3       30.28R
RAWLINS        CLEAR     18  10  71 W7        30.19S WCI   9
SARATOGA       FAIR      19  12  73 SW10      30.20R WCI   8
LARAMIE        PTCLDY    15   9  76 NW8       30.14S WCI   4
CHEYENNE       MOCLDY    24  18  77 N6        30.16R WCI  17
TORRINGTON     CLEAR     30  17  58 NW9       30.16R WCI  22
PINE BLUFFS    FAIR      27  19  74 NW13      30.16R WCI  16

$$



USA.gov is the U.S. government's official web portal to all federal, state and local government web resources and services.